Vertical_Velocity
-2 1 2 3 4 2 7 4 -3 -0 -5 -0 -4 0 -6 -2 -1 1 -0 -0 0 0 -0 2 2 -1 -0 -1 2 -1 1 -0 -1 -0 -0 -1 -1 -2 -1 -1 -1 -1 -0
-3 -0 4 4 1 -3 2 6 6 0 -6 -4 -1 -0 0 2 2 1 -0 -0 -1 -0 -0 2 -0 2 -2 -1 -3 1 -1 -0 0 0 0 -1 -2 -1 0 -1 -1 -0 -3
-2 -0 1 1 0 -1 -4 -3 0 3 -3 -3 1 5 6 6 2 1 -1 1 -0 -0 -1 3 -1 0 0 -2 -0 -0 1 1 0 0 1 -1 -2 -1 -3 -1 -0 -2 -1
2 1 -1 1 -2 -3 1 7 -0 -3 1 -5 -21 -5 2 -6 -5 -0 0 2 -1 0 -1 1 -0 -1 -1 -1 -0 2 1 1 -1 2 -1 1 2 -0 -2 -2 -1 -0 -1
-0 -3 -2 2 -3 1 -4 0 2 0 -1 3 1 -1 -0 -0 2 2 0 0 0 -2 0 -1 1 0 -1 1 -1 0 -2 2 -2 -2 1 1 1 0 1 -7 -3 -1 1
-3 1 3 4 -2 3 -1 3 0 -1 4 0 1 -4 -3 0 0 1 -2 -1 1 0 -0 1 1 2 -0 -1 -1 1 -2 1 3 -1 -0 0 -2 -1 2 1 -3 -2 -3
-1 -2 -3 -0 1 -2 2 -2 -4 -3 1 -3 -4 -3 -2 -0 -1 -1 -3 -1 -1 -4 -5 -1 -2 -4 -1 -3 -2 -1 -2 -2 -0 1 -2 1 -2 2 1 2 -2 -1 -5
1 -1 1 1 -5 -2 1 1 -1 -1 -1 1 -1 -2 -1 -2 -2 0 -2 2 -1 -3 5 -2 -1 -2 -1 -1 -1 -1 0 1 -1 -0 -1 -3 -3 1 2 2 4 -7 -2
-6 -8 -3 -2 2 -3 -2 -5 -3 -1 -2 1 4 3 3 -2 -2 1 -0 0 3 2 2 2 2 3 -2 1 5 -0 -4 -0 3 -3 -1 -2 1 2 -3 -3 -2 1 -5
6 -3 -8 -5 -1 3 4 5 3 -1 2 3 3 2 -4 1 2 4 -0 -2 1 0 0 1 -1 2 5 3 5 3 1 -2 -1 -1 -3 -1 -0 -1 1 2 2 5 4
-8 -5 1 8 4 4 3 -0 4 4 4 6 6 5 5 1 1 -1 0 -3 4 -0 -2 -1 2 1 1 3 3 2 4 -1 4 -0 1 2 9 0 1 4 4 -2 4
-4 -6 -2 5 -1 -0 3 0 2 3 2 1 2 5 10 5 5 4 4 7 5 6 4 5 3 4 3 2 -0 4 4 3 2 0 5 -4 12 -2 6 3 1 7 16
2 3 3 -2 -1 0 1 3 2 1 1 4 1 2 1 1 2 1 1 -1 0 3 2 7 3 3 1 2 2 1 2 -0 -1 4 -1 -4 7 -4 -1 3 0 -0 5
1 4 7 5 3 3 1 1 0 0 1 -0 1 2 -1 -2 -1 2 -3 3 -1 -2 -3 -2 1 1 2 1 1 1 2 2 -1 1 6 1 4 3 -2 3 3 3 4
2 3 -2 -1 -1 -4 -3 -2 -0 3 2 2 1 1 2 -2 -3 4 3 4 4 -1 -1 -2 -1 2 -1 -3 -4 -6 -4 -3 -1 -1 1 -1 -1 -2 2 7 -2 4 -3
1 -3 -2 -0 -1 -1 -1 -0 -0 -1 -0 -0 1 0 -0 4 1 4 6 2 5 4 3 8 5 4 4 7 3 -1 4 1 1 2 6 3 4 2 -8 7 2 0 1
-8 -8 -4 -1 -0 1 2 1 3 1 -0 1 1 1 0 -1 0 5 -1 5 2 0 4 6 -0 2 2 1 1 2 4 7 1 3 1 1 1 2 6 6 -1 10 13
0 3 3 2 5 5 4 3 3 2 3 2 1 1 1 2 1 -1 -1 -0 0 -1 0 0 2 1 1 4 0 1 0 2 1 3 -1 -0 1 -0 1 -4 5 -0 3
3 4 4 2 -1 -1 -1 -0 0 1 1 1 1 2 1 1 0 1 0 1 1 1 -0 1 0 1 -1 -1 -0 0 -3 4 -2 -1 5 -1 -7 8 -7 -2 2 -7 1
0 0 -0 -1 1 1 -0 -5 -6 -1 1 2 1 2 2 2 2 2 1 1 1 -0 -0 0 0 -2 -1 -2 -1 -1 -0 -3 -0 -1 1 -1 -1 -2 1 -4 -2 -3 3
2 0 2 2 -0 -1 -1 0 2 1 -1 -1 -2 -2 -2 -3 -2 -3 -2 -2 -0 0 0 0 0 0 -0 1 -1 -1 -0 -0 1 -1 -1 -0 -2 -1 -1 -1 -2 -3 -6
-1 1 1 0 1 2 2 2 3 1 2 2 -0 -1 -1 0 0 1 1 -1 -2 -1 -1 -0 -0 0 0 -1 -1 -2 -2 -2 -2 -2 -1 -2 -1 -1 -2 -1 -0 -1 0
-1 1 0 -1 -1 -1 -0 2 1 1 0 -0 -0 -0 -0 0 -1 -1 -1 -0 -0 0 0 -0 -1 -1 -0 -1 -0 -1 -1 -1 -0 -1 -2 -1 -2 -2 0 -0 -2 -2 -1
-1 0 0 0 0 0 1 1 1 1 1 1 0 0 -0 -0 0 1 1 1 1 -0 -0 -0 -1 -0 0 -1 -1 -1 0 -0 0 0 0 -1 -2 -0 -1 -1 -0 -0 -1
-2 -1 -0 -1 -1 -0 -0 0 0 0 0 1 1 1 1 1 0 0 0 -0 -1 0 -0 1 1 0 0 -1 -2 -2 -2 -3 -3 -3 -1 0 -1 -2 -0 1 -0 -0 -0
-1 -1 -2 -0 -1 0 -0 -1 -1 -1 -2 -1 -1 1 2 3 2 1 0 1 0 -1 -0 0 0 0 -0 -1 -0 -1 -1 -1 -2 -1 -3 -2 -3 -3 -3 -3 -3 -1 -2
Height
1502 1508 1513 1517 1522 1525 1530 1534 1538 1542 1545 1549 1552 1555 1557 1560 1563 1565 1567 1569 1571 1572 1574 1576 1577 1578 1580 1582 1585 1585 1586 1587 1588 1589 1589 1589 1588 1589 1588 1588 1588 1588 1589
1501 1506 1510 1514 1518 1522 1527 1531 1535 1538 1542 1547 1550 1553 1554 1558 1561 1564 1565 1567 1569 1570 1572 1573 1575 1576 1578 1579 1582 1583 1584 1585 1586 1587 1587 1587 1587 1586 1585 1585 1585 1585 1585
1496 1503 1507 1511 1515 1518 1523 1527 1532 1535 1540 1544 1550 1554 1555 1558 1559 1561 1562 1564 1566 1568 1570 1571 1572 1574 1575 1577 1579 1581 1581 1583 1584 1585 1586 1585 1583 1582 1582 1582 1582 1582 1582
1495 1499 1503 1507 1511 1515 1521 1525 1527 1531 1537 1539 1543 1549 1547 1550 1553 1557 1560 1563 1564 1566 1567 1570 1570 1571 1574 1574 1577 1578 1580 1580 1581 1582 1582 1583 1582 1582 1581 1579 1580 1579 1579
1491 1494 1499 1503 1508 1514 1517 1522 1525 1529 1533 1536 1538 1543 1545 1548 1552 1555 1557 1560 1562 1564 1564 1567 1568 1569 1570 1572 1574 1575 1576 1576 1577 1579 1580 1580 1580 1580 1579 1576 1577 1576 1576
1488 1493 1498 1502 1505 1510 1514 1519 1523 1526 1528 1532 1535 1539 1543 1547 1550 1552 1554 1557 1558 1560 1562 1563 1565 1566 1568 1570 1571 1572 1573 1574 1574 1575 1577 1578 1577 1577 1576 1575 1573 1571 1572
1483 1487 1491 1495 1500 1504 1509 1514 1519 1521 1524 1527 1532 1535 1539 1543 1546 1549 1551 1553 1555 1556 1558 1560 1562 1563 1565 1567 1569 1570 1571 1572 1572 1572 1573 1575 1575 1575 1574 1572 1571 1568 1566
1475 1480 1486 1491 1496 1500 1505 1509 1513 1517 1520 1523 1526 1530 1536 1539 1542 1545 1548 1550 1552 1553 1555 1556 1559 1561 1563 1564 1566 1567 1568 1569 1570 1570 1570 1571 1572 1572 1571 1569 1568 1564 1561
1471 1476 1481 1487 1491 1496 1500 1504 1508 1513 1516 1519 1524 1526 1530 1533 1536 1540 1544 1546 1549 1551 1553 1554 1556 1557 1559 1561 1562 1563 1565 1565 1566 1566 1566 1565 1566 1566 1566 1565 1564 1562 1556
1464 1469 1476 1481 1485 1489 1494 1499 1504 1508 1513 1517 1520 1524 1527 1530 1534 1537 1540 1541 1545 1547 1549 1551 1552 1553 1554 1556 1557 1558 1560 1560 1561 1561 1560 1560 1560 1560 1559 1558 1558 1556 1553
1457 1462 1469 1474 1478 1485 1490 1495 1499 1505 1509 1514 1517 1520 1523 1527 1530 1532 1535 1536 1539 1541 1543 1545 1547 1548 1549 1551 1552 1552 1553 1553 1554 1554 1554 1553 1553 1552 1552 1551 1550 1548 1547
1450 1456 1464 1469 1475 1481 1486 1491 1496 1500 1504 1508 1511 1514 1518 1521 1524 1526 1528 1531 1532 1535 1537 1539 1540 1541 1542 1544 1545 1546 1547 1546 1547 1548 1547 1547 1547 1546 1545 1543 1541 1540 1539
1444 1450 1458 1463 1469 1475 1481 1486 1490 1495 1499 1503 1506 1510 1512 1515 1517 1519 1521 1523 1526 1527 1529 1531 1532 1534 1535 1536 1537 1538 1538 1538 1539 1539 1538 1539 1539 1537 1536 1534 1531 1531 1529
1442 1447 1451 1455 1463 1469 1476 1481 1485 1489 1493 1496 1499 1503 1506 1509 1512 1513 1514 1516 1518 1520 1522 1524 1525 1526 1528 1528 1529 1529 1529 1529 1530 1530 1530 1529 1529 1528 1527 1525 1523 1521 1519
1440 1444 1448 1454 1460 1465 1471 1475 1479 1483 1486 1489 1492 1496 1498 1501 1504 1505 1507 1508 1509 1512 1514 1515 1515 1517 1517 1518 1519 1520 1521 1521 1521 1521 1521 1521 1519 1519 1519 1517 1515 1513 1511
1437 1442 1446 1451 1454 1458 1463 1468 1473 1477 1481 1484 1487 1490 1492 1494 1497 1498 1499 1501 1501 1503 1505 1506 1507 1506 1508 1507 1509 1511 1511 1512 1513 1513 1512 1511 1510 1508 1508 1506 1504 1504 1502
1432 1437 1440 1445 1451 1455 1460 1464 1469 1472 1476 1478 1481 1483 1485 1488 1490 1491 1493 1494 1495 1496 1498 1499 1501 1500 1500 1500 1500 1501 1502 1501 1501 1500 1500 1500 1500 1498 1495 1494 1493 1493 1493
1425 1431 1435 1440 1446 1450 1454 1457 1461 1465 1468 1471 1474 1477 1479 1481 1483 1485 1487 1488 1489 1490 1491 1492 1492 1493 1493 1492 1491 1492 1494 1494 1493 1492 1491 1490 1490 1488 1486 1483 1484 1483 1483
1423 1427 1433 1438 1442 1446 1449 1453 1457 1460 1463 1466 1469 1471 1474 1475 1477 1479 1480 1482 1483 1484 1485 1486 1487 1487 1487 1486 1486 1487 1487 1486 1486 1485 1484 1483 1482 1479 1479 1474 1475 1472 1473
1420 1424 1428 1433 1438 1442 1446 1449 1452 1455 1458 1460 1463 1466 1468 1470 1472 1474 1475 1477 1478 1480 1481 1481 1481 1482 1483 1482 1482 1482 1482 1481 1481 1480 1479 1477 1476 1473 1472 1469 1467 1464 1463
1418 1422 1427 1431 1435 1440 1443 1447 1449 1453 1456 1459 1462 1465 1466 1468 1469 1471 1472 1473 1474 1475 1477 1477 1477 1477 1477 1477 1477 1477 1476 1476 1476 1474 1474 1473 1471 1469 1467 1464 1462 1459 1456
1417 1421 1426 1430 1434 1438 1441 1444 1447 1449 1452 1454 1456 1459 1461 1462 1464 1466 1467 1469 1470 1472 1473 1473 1473 1474 1474 1474 1473 1473 1472 1471 1470 1469 1468 1467 1465 1463 1461 1458 1456 1453 1450
1420 1423 1426 1429 1433 1436 1439 1441 1443 1446 1449 1451 1453 1455 1458 1460 1462 1463 1465 1466 1467 1468 1469 1470 1471 1471 1471 1471 1471 1470 1469 1468 1467 1466 1464 1462 1460 1459 1456 1453 1450 1447 1444
1420 1423 1425 1428 1430 1433 1436 1439 1442 1445 1447 1449 1452 1454 1456 1458 1459 1461 1462 1463 1464 1465 1466 1467 1468 1468 1468 1467 1467 1466 1465 1464 1464 1462 1460 1458 1456 1454 1451 1448 1446 1443 1440
1418 1421 1423 1426 1429 1432 1434 1437 1440 1443 1445 1448 1450 1452 1454 1455 1456 1458 1459 1460 1462 1463 1464 1465 1464 1465 1465 1464 1463 1463 1461 1460 1459 1458 1456 1454 1452 1449 1447 1444 1441 1438 1435
1416 1417 1420 1424 1427 1430 1432 1435 1438 1441 1443 1446 1448 1450 1452 1453 1454 1455 1457 1458 1459 1460 1461 1462 1462 1462 1461 1461 1460 1459 1458 1457 1455 1453 1451 1449 1447 1444 1441 1438 1436 1433 1430